TimeCDT,TemperatureF,Dew PointF,Humidity,Sea Level PressureIn,VisibilityMPH,Wind Direction,Wind SpeedMPH,Gust SpeedMPH,PrecipitationIn,Events,Conditions,WindDirDegrees,DateUTC
12:54 AM,70.0,64.9,84,29.91,10.0,Calm,Calm,-,N/A,,Clear,0,2013-07-21 05:54:00
1:54 AM,71.1,64.0,78,29.91,10.0,South,3.5,-,N/A,,Clear,190,2013-07-21 06:54:00
2:54 AM,69.1,63.0,81,29.89,10.0,Calm,Calm,-,N/A,,Clear,0,2013-07-21 07:54:00
3:54 AM,64.9,61.0,87,29.88,10.0,ESE,3.5,-,N/A,,Clear,120,2013-07-21 08:54:00
4:54 AM,64.9,62.1,90,29.88,10.0,Calm,Calm,-,N/A,,Clear,0,2013-07-21 09:54:00
5:54 AM,64.0,62.1,93,29.88,10.0,Calm,Calm,-,N/A,,Clear,0,2013-07-21 10:54:00
6:54 AM,66.9,64.0,90,29.89,10.0,East,3.5,-,N/A,,Clear,100,2013-07-21 11:54:00
7:54 AM,70.0,64.0,81,29.88,10.0,ESE,5.8,-,N/A,,Mostly Cloudy,110,2013-07-21 12:54:00
8:54 AM,75.0,64.0,69,29.88,10.0,ESE,5.8,-,N/A,,Partly Cloudy,120,2013-07-21 13:54:00
9:54 AM,79.0,64.0,60,29.88,10.0,SE,6.9,-,N/A,,Clear,130,2013-07-21 14:54:00
10:54 AM,80.1,66.0,62,29.89,9.0,Variable,4.6,-,N/A,,Partly Cloudy,0,2013-07-21 15:54:00
11:54 AM,80.1,64.9,60,29.88,10.0,SE,10.4,-,N/A,,Scattered Clouds,140,2013-07-21 16:54:00
12:54 PM,82.0,66.0,58,29.87,10.0,SSE,11.5,-,0.00,,Mostly Cloudy,150,2013-07-21 17:54:00
1:54 PM,86.0,63.0,46,29.86,10.0,SSE,13.8,-,N/A,,Clear,160,2013-07-21 18:54:00
2:54 PM,86.0,57.9,38,29.84,10.0,South,16.1,21.9,N/A,,Clear,190,2013-07-21 19:54:00
3:54 PM,82.9,60.1,46,29.84,10.0,North,-9999.0,-,N/A,,Scattered Clouds,0,2013-07-21 20:54:00
4:54 PM,82.0,61.0,49,29.81,10.0,SSW,8.1,-,N/A,,Clear,200,2013-07-21 21:54:00
5:54 PM,82.0,66.0,58,29.82,10.0,South,11.5,-,N/A,,Mostly Cloudy,180,2013-07-21 22:54:00
6:54 PM,80.1,66.0,62,29.82,10.0,South,8.1,-,N/A,,Partly Cloudy,170,2013-07-21 23:54:00
7:54 PM,78.1,68.0,71,29.82,10.0,South,8.1,-,N/A,,Clear,170,2013-07-22 00:54:00
8:54 PM,75.0,64.0,69,29.82,10.0,SSE,6.9,-,N/A,,Clear,160,2013-07-22 01:54:00
9:54 PM,69.1,64.9,87,29.83,10.0,East,6.9,-,N/A,,Clear,100,2013-07-22 02:54:00
10:54 PM,69.1,64.9,87,29.87,10.0,East,3.5,-,N/A,,Scattered Clouds,90,2013-07-22 03:54:00
11:54 PM,66.9,64.9,93,29.86,10.0,ESE,5.8,-,N/A,,Clear,120,2013-07-22 04:54:00